Regional Weather Roundup
Issued by NWS Wilmington, NC

Home | Current Version | Previous Version | Text Only | Print | Product List | Glossary On
Versions: 1 2 3 4 5 6 7 8 9 10 11 12 13 14 15 16 17 18 19 20 21 22 23 24 25 26 27
000
ASUS42 KILM 241213
RWRILM
RWRILM
REGIONAL HOURLY WEATHER ROUNDUP
NATIONAL WEATHER SERVICE WILMINGTON NC
800 AM EDT MON APR 24 2017

NOTE: "FAIR" INDICATES FEW OR NO CLOUDS BELOW 12,000 FEET WITH NO
SIGNIFICANT WEATHER AND/OR OBSTRUCTIONS TO VISIBILITY.

...............WFO WILMINGTON COUNTY WARNING AREA...............

......COASTAL NC AND SC COUNTIES......

CITY           SKY/WX    TMP DP  RH WIND       PRES   REMARKS
WILMINGTON     LGT RAIN  67  67 100 SE15      29.80S FOG
N MYRTLE BEACH CLOUDY    67  66  97 NE6       29.75R
MYRTLE BEACH   PTSUNNY   66  64  94 NW6       29.76R

......INLAND NC AND SC COUNTIES.......

CITY           SKY/WX    TMP DP  RH WIND       PRES   REMARKS
LUMBERTON      HVY RAIN  57  57 100 NE16      29.79F FOG
ELIZABETHTOWN  CLOUDY    59  59 100 NE5       29.81F
WHITEVILLE     LGT RAIN  61  60  97 NE5       29.78S
FLORENCE       CLOUDY    58  58 100 NE14      29.77S
DARLINGTON     LGT RAIN  57  56  96 NE17      29.77F
KINGSTREE      TSTM      59  59 100 NE7       29.74R
HARTSVILLE     CLOUDY    55  54  94 NE14      29.76S
BENNETTSVILLE  CLOUDY    59  57  94 NE15      29.78F
CONWAY         RAIN      61  61 100 CALM      29.77R
GEORGETOWN     CLOUDY    66  64  94 NE7       29.73S
MARION         HVY RAIN  57  55  94 NE9       29.78S

....................REST OF NORTH CAROLINA......................

.........EASTERN NC.........

CITY           SKY/WX    TMP DP  RH WIND       PRES   REMARKS
CAPE HATTERAS  LGT RAIN  68  66  93 E5        29.88S FOG
JACKSONVILLE   RAIN      61  61 100 NE7       29.84S FOG
MOREHEAD CITY  CLOUDY    68  68 100 NE6       29.84S
KENANSVILLE    LGT RAIN  59  59 100 CALM      29.84S FOG
NEW BERN       CLOUDY    63  63 100 E6        29.86S
ELIZABETH CITY LGT RAIN  62  62 100 NE9       29.92S

.........CENTRAL NC.........

CITY           SKY/WX    TMP DP  RH WIND       PRES   REMARKS
RALEIGH DURHAM LGT RAIN  54  53  97 NE8       29.89S FOG
ROCKY MOUNT    RAIN      56  56 100 NE9       29.88F FOG
ROANOKE RAPIDS NOT AVBL
FAYETTEVILLE   RAIN      57  56  96 NE9       29.85R FOG
HOFFMAN        CLOUDY    55  54  94 NE10      29.83S

.........WESTERN NC.........

CITY           SKY/WX    TMP DP  RH WIND       PRES   REMARKS
CHARLOTTE      RAIN      52  49  89 NE16      29.80F
GREENSBORO     LGT RAIN  49  49 100 NE13      29.90F FOG
HICKORY        NOT AVBL
BOONE          NOT AVBL
ASHEVILLE      NOT AVBL

.....................REST OF SOUTH CAROLINA.....................

.........EASTERN SC.........

CITY           SKY/WX    TMP DP  RH WIND       PRES   REMARKS
CHARLESTON     HVY RAIN  69  67  93 SE17      29.68S VSB 3/4
BEAUFORT MCAS  PTSUNNY   71  70  96 W3        29.67S
HILTON HEAD    MOSUNNY   72  70  94 SW8       29.67F

.........CENTRAL SC.........

CITY           SKY/WX    TMP DP  RH WIND       PRES   REMARKS
COLUMBIA       CLOUDY    61  59  93 N6        29.72S
ORANGEBURG     RAIN      62  61  96 NE10      29.71R FOG
SUMTER SHAW    LGT RAIN  61  59  94 NE14      29.71S

.........WESTERN SC.........

CITY           SKY/WX    TMP DP  RH WIND       PRES   REMARKS
GREENVILLE     NOT AVBL
ROCK HILL      CLOUDY    53  51  93 NE7       29.81R
ANDERSON       CLOUDY    52  49  89 NE16G22   29.75F
CLEMSON        NOT AVBL
GREENWOOD      LGT RAIN  51  49  92 NE10G23   29.78R FOG


...................COASTAL AND OFFSHORE REPORTS..................

................LOCAL PIERS AND NC RESERVE................


STATION/POSITION TIME  SKY/WX   TEMP    WIND        PRES    VSBY
                                AIR SEA DIR/SP/G
                 (UTC)          (F)     (DEG/KT/KT) (MB)    (MI)
JOHNY MRCER PIER 1148            67 71  150/ 23/ 28 1008.0R
NC RESRV MASNBRO 1045            67     210/  2     1009.0
OCEAN CREST PIER NOT AVBL
SPRINGMAID  PIER 1148                               1006.6R


................COASTAL AND OFFSHORE BUOYS................


STATION/POSITION TIME  SKY/WX   TEMP    WIND        PRES    VSBY
                                AIR SEA DIR/SP/G
                 (UTC)          (F)     (DEG/KT/KT) (MB)    (MI)
DIMNDSHOAL 41025 1150            77 78  150/ 17/ 21 1011.4S
WVE H/P(F/S)=  8/11 SWL H/P/D(F/S/D)=  7/ 60/11

CAPE LOOKOUT     1200            72     140/ 13/ 14 1010.0S
ONSLOW BAY 41036 NOT AVBL
ONSLOW BAY 41064 1108            72     160/ 16/ 21 1009.4R
ONSLOW BAY 41159 1143               71                N/A
WVE H/P(F/S)=  7/ 6 SWL H/P/D(F/S/D)=  2/100/12

MASNBO INL 41110 1159               69                N/A
WVE H/P(F/S)=  5/ 6 SWL H/P/D(F/S/D)=  2/100/12

WILM HARBR 41108 1147               70                N/A
WVE H/P(F/S)=  5/ 7 SWL H/P/D(F/S/D)=  2/130/11

27SE WRITB 41037 1108            74 72  150/ 16/ 23 1008.1R
FRYING PAN 41013 1200            70 75  130/ 25/ 31 1008.3
SUNST NRSH 41024 1108            69 68  100/  6/  8 1007.6R
CAPRS NRSH 41029 1108            74 72  170/ 16/ 21 1005.1S
EDISTO     41004 1150            74 74  150/ 21/ 25 1005.8S
WVE H/P(F/S)=  8/ 7 SWL H/P/D(F/S/D)=  2/130/11



..........OFFSHORE BUOYS BEYOND 100 NM OFFSHORE...........
.....IN A TRIANGLE---HAT TO BERMUDA TO BAHAMAS TO HAT.....


STATION/POSITION TIME  SKY/WX   TEMP    WIND        PRES    VSBY
                                AIR SEA DIR/SP/G
                 (UTC)          (F)     (DEG/KT/KT) (MB)    (MI)
150E HAT   41001 1200            71 72  140/ 16/ 17 1015.4
W BERMUDA  41048 1200            70 71  150/ 16/ 19 1017.5
ATLANTIC S 41049 1150            72 72  100/ 10/ 12 1021.2R
WVE H/P(F/S)=  5/10 SWL H/P/D(F/S/D)=  5/ 30/10

E BAHAMAS  41046 1200            77 77  120/ 17/ 23 1015.8
NE BAHAMAS 41047 1200            74 74  140/ 19/ 25 1013.4
120E CANVRL41010 1200            75 78  160/  2/  4 1006.0

END




USA.gov is the U.S. government's official web portal to all federal, state and local government web resources and services.